Reflectivity
-20 -20 -16 -2 -20 -18 -20 -3 -3 -3 -20 4 -0 -17 -4 -10 -15 -20 -0 4 13 -17 5 22 10 6 -3 18 30 28 32 17 19 -20 -20 -20 -20 -20 -20 -20 -20 -20 -20
-20 -3 -11 -20 -20 -19 -20 -20 -2 -19 -2 12 6 2 4 6 -20 2 -20 -19 -15 -20 -2 13 9 1 4 -0 27 29 18 27 -20 -20 -20 -20 -20 -20 -20 -20 -20 -20 -20
-20 -20 -20 -20 -20 -20 -20 -20 -17 -0 6 -20 -20 -20 -18 -20 -9 4 -13 -15 -20 2 -17 -11 3 10 3 20 37 27 33 -20 -20 -20 -20 -20 -20 -19 11 -20 -20 -20 -20
-20 -20 -20 -20 -20 -20 -20 -13 -15 3 4 -6 -12 -2 -17 -20 -11 14 -9 3 9 -16 -15 -8 -5 10 10 8 31 36 20 -20 -20 -20 -20 -20 -20 -10 -20 -20 -20 -20 -1
-20 -20 -20 -19 -20 -20 -20 -20 -11 -10 -8 -20 -20 -9 -3 14 7 -18 -20 -20 -20 -3 2 -3 -3 -16 2 6 10 7 13 1 -20 -20 -20 -14 10 0 -16 -20 -20 -20 -10
-20 -12 -17 -20 -20 -20 -20 -2 -20 -20 -18 -20 -20 17 -20 7 -20 -20 -2 6 2 -4 -5 9 2 10 -20 -20 -20 26 -8 -7 -20 -20 -20 -20 -20 -20 -20 -20 -20 10 4
-20 -3 -13 -1 -2 -17 -15 8 1 -5 -20 -20 12 18 -18 10 -20 -14 2 -0 -5 4 21 3 0 11 -20 -20 -20 25 16 -20 -5 -17 -17 1 -15 -20 15 -20 4 15 -20
-20 -20 -7 -17 -2 0 2 -4 -3 -4 -20 -20 16 1 -5 -20 -20 -20 -6 20 6 3 -18 -20 12 11 -18 -19 -20 18 -12 -20 -18 -20 13 -18 -18 -5 11 -20 -20 -20 -20
-20 -17 -9 1 -8 -16 -6 -20 1 6 -0 5 15 -4 -19 -20 -20 -20 -17 -2 -3 -11 -7 0 -18 10 -13 -7 -9 -18 -20 -20 -20 -20 -18 0 -20 -10 -13 -20 -20 -20 -20
-20 -15 -20 3 2 -5 -9 -2 10 11 15 -17 3 4 -14 -20 -20 -20 -20 28 2 -12 -14 -20 5 11 25 -20 -20 -13 1 -20 12 -10 20 13 7 -19 -20 -20 -20 -20 -20
-20 -0 -9 -5 1 6 -12 7 1 -7 -8 11 10 13 -18 -20 -12 -20 -20 -19 9 21 -13 12 -19 -17 -2 -20 -20 -15 -20 -18 -15 -4 12 -20 -20 -20 -20 -19 -20 -20 -20
-20 7 -18 -17 -11 -13 -6 -9 -16 -0 -12 -20 -11 9 15 6 -6 -20 -20 -20 -3 31 -12 -17 -17 -20 -20 -20 -20 -17 -20 -11 6 -5 -13 -20 -20 -20 25 -13 21 9 -2
-20 -11 -10 -20 -20 -7 -2 6 -3 -8 -7 -10 -11 -5 7 15 -2 7 -9 18 29 27 7 -4 4 -6 -3 -20 -5 15 -5 -6 14 17 -18 -6 2 -20 -20 -20 -20 -20 -20
-20 -20 -20 -20 -18 -20 -15 5 17 -14 -19 -19 0 -8 -3 0 -18 -20 -15 10 28 21 11 -5 7 -0 7 -13 -20 -20 -20 -20 4 -13 -20 -20 -20 -20 -20 -20 -20 -20 -20
-20 -20 -20 -20 -14 -20 -12 9 1 23 17 -9 -2 13 -17 -19 -20 -20 -20 10 11 6 12 -12 -10 8 11 -10 -5 -4 14 6 -20 -20 -20 -20 -20 -20 -20 -20 -20 -20 -20
-20 -20 -20 -20 -20 -18 -20 -18 26 19 15 24 30 28 18 -1 -2 -20 -20 12 17 13 1 25 21 5 -1 4 22 19 1 -15 -20 -3 -20 -20 -20 -20 -20 -11 -20 -20 -20
-20 -20 -3 -20 -11 -20 -20 -2 -5 11 28 22 23 31 27 9 -20 -20 -20 -20 5 -2 -20 -20 -18 -15 -19 -20 -20 -20 -20 -20 6 12 5 -20 19 -20 -19 -20 -1 -7 -18
-15 -18 -10 1 -9 -7 -2 7 19 25 24 22 27 23 17 25 18 -11 -20 -20 -20 -20 -20 -20 -20 -20 -20 -20 -20 -20 -20 -20 -20 -12 5 -7 -20 -20 -8 -20 -20 -20 -0
-12 -12 -20 -7 -7 10 22 18 23 24 28 23 26 26 25 10 15 18 2 -19 -16 -20 -20 -19 -1 -20 -20 -16 -20 -20 -20 -20 -19 -20 -4 -8 -20 -20 -20 -14 -15 7 -2
-8 -16 -9 -10 -19 -20 -18 -15 4 4 4 7 -1 12 18 22 4 -4 -16 -1 0 -16 -14 -20 -20 -17 -20 -20 -20 -20 -20 -20 -20 -20 -20 -20 -11 -20 -20 -17 -17 -20 -18
-20 -20 6 -17 3 -2 -6 -8 -16 -15 -14 0 5 28 30 16 11 8 6 6 -15 -20 -20 -20 -20 -20 -20 -20 -20 -20 -20 -20 -20 -20 -20 -20 0 -20 -9 2 -20 12 -20
-20 -20 -18 -17 -18 -19 -5 -5 -3 -9 -16 0 -1 1 29 26 25 15 16 14 12 18 21 -3 -19 -20 -20 -20 -20 -20 -17 -12 -20 -20 -18 6 -14 -19 27 8 -2 -15 -19
-19 -20 -20 -5 -2 -1 -11 -10 -16 -14 -9 -11 -17 -5 25 31 9 12 19 21 21 17 19 13 4 8 -6 -20 -20 -20 -20 9 0 -8 5 5 -5 -13 13 26 5 -11 -20
-20 -20 -20 -20 -10 -20 -20 -20 -20 5 4 -11 -11 -15 -10 8 27 26 20 -2 25 22 29 17 10 -0 -6 11 -1 -20 -20 -20 -20 -20 -20 -20 -20 -11 -19 9 19 17 -15
-20 -13 -20 -20 -20 -20 -20 -18 -16 -20 -20 -20 -20 -20 -11 -10 0 7 21 32 16 -6 20 26 23 20 11 -1 11 10 13 0 -9 -18 -19 -20 -20 -7 8 7 3 7 9
-20 -20 -20 -17 -9 -13 -20 1 -3 -7 -20 -19 -20 -20 -20 -20 -15 -5 -8 -0 13 25 25 12 18 28 20 15 16 18 8 11 7 13 4 -20 -20 -19 8 20 15 17 2
Wind_Speed
9 9 9 8 7 7 7 9 9 9 10 10 9 6 6 8 5 6 9 8 8 6 8 10 7 8 6 8 6 8 6 6 5 3 1 3 3 5 2 4 5 5 6
8 6 6 8 8 5 7 7 8 9 9 9 8 8 9 8 7 8 6 7 9 9 9 9 9 6 8 9 6 7 9 6 4 5 2 1 2 4 6 5 5 7 7
8 7 8 7 5 7 8 10 9 8 8 9 10 10 11 11 9 7 6 6 6 8 8 8 8 9 6 9 7 5 5 3 3 3 3 1 2 4 4 5 4 5 5
8 8 8 5 4 6 8 10 10 11 8 9 10 11 9 10 9 7 8 7 6 7 10 9 9 9 8 7 7 6 6 4 4 3 3 1 2 6 3 3 3 4 2
10 9 8 4 3 5 6 8 7 8 9 9 11 10 10 8 5 5 6 8 8 8 7 9 9 11 12 5 4 5 4 4 4 4 4 1 6 3 5 3 4 3 3
9 11 8 7 7 7 9 8 7 6 9 10 11 8 8 4 6 11 12 9 9 8 6 8 8 13 10 4 5 4 5 1 5 4 6 5 6 4 4 4 3 3 3
12 10 10 10 8 10 8 10 8 8 8 10 9 9 7 3 7 12 12 7 7 6 5 5 6 6 8 5 7 2 7 3 1 2 7 4 7 6 5 5 4 3 4
9 12 10 11 7 9 10 11 10 7 8 9 8 5 6 3 8 9 12 7 3 5 4 6 6 5 6 5 4 7 6 3 3 4 3 6 5 9 6 6 5 5 3
10 10 12 10 7 8 9 10 10 9 8 8 8 4 5 3 8 8 7 6 2 4 5 5 6 6 7 10 4 5 6 3 4 9 6 10 1 3 6 3 2 2 3
10 10 10 8 8 7 8 10 11 10 9 6 7 3 5 4 6 10 8 5 4 4 5 7 9 4 10 10 6 4 8 5 7 6 4 9 7 3 6 4 2 1 1
8 11 10 9 8 5 7 7 10 11 9 8 5 4 2 2 5 9 10 5 5 1 3 3 3 9 7 7 8 5 6 6 4 6 6 7 4 3 2 2 3 2 1
10 10 10 9 6 6 8 6 10 9 9 8 9 6 3 2 6 6 9 8 9 2 1 1 2 9 9 10 8 9 7 4 5 4 6 3 2 2 1 4 2 5 5
11 11 11 11 10 5 6 5 5 8 7 8 7 7 7 5 4 6 7 8 6 3 2 4 7 8 9 9 9 7 5 4 5 6 2 2 1 3 5 3 4 6 5
10 12 10 9 11 8 7 6 4 5 6 6 6 7 7 7 7 7 7 6 8 6 4 4 4 5 5 5 3 4 3 3 3 2 3 2 1 3 2 2 2 3 3
8 8 9 7 9 8 5 4 4 2 3 5 5 5 5 5 5 8 8 6 6 6 4 3 3 3 3 2 3 3 4 4 2 2 3 2 2 2 1 1 1 1 1
9 6 8 7 7 7 8 8 3 6 6 8 9 5 5 9 7 7 10 10 11 10 4 3 2 1 3 4 4 3 2 3 2 2 3 4 4 4 4 2 2 2 2
12 8 5 8 7 7 8 8 9 6 8 8 10 9 10 8 8 9 12 14 9 8 4 5 4 4 3 3 3 3 2 1 3 3 4 4 2 2 3 1 1 1 1
14 12 5 6 7 8 8 8 7 7 8 8 9 11 13 12 10 9 10 11 2 5 4 4 3 4 3 2 2 1 0 0 1 2 1 2 2 2 2 1 2 3 3
10 10 11 7 6 4 5 7 8 8 7 7 7 9 12 15 12 13 8 3 4 2 1 1 2 3 2 2 2 1 2 1 1 2 1 2 2 2 1 2 2 4 4
9 8 10 9 9 9 9 9 7 7 8 8 8 9 8 7 7 7 7 7 7 6 6 3 3 4 4 4 3 1 1 1 3 2 2 3 2 3 3 4 4 3 4
8 9 9 7 8 8 8 9 9 9 9 8 7 6 11 7 7 6 6 6 5 5 6 6 6 6 4 4 4 3 1 2 3 2 3 1 3 2 4 4 5 4 4
8 9 9 9 9 9 9 8 8 8 9 9 9 9 11 5 6 7 6 6 5 5 4 5 4 5 5 4 4 2 2 2 3 1 3 2 3 4 4 4 4 4 3
10 10 9 9 9 11 9 9 9 9 9 9 9 9 9 8 8 7 7 6 6 6 5 5 5 5 5 5 4 3 3 2 2 1 3 4 4 4 4 5 4 4 4
9 11 10 9 9 9 9 10 9 11 10 10 10 9 10 9 8 9 8 7 6 6 5 5 5 6 6 5 5 4 4 4 3 4 6 5 6 5 4 5 4 6 4
9 9 10 9 10 9 9 9 9 10 10 9 9 9 9 9 10 10 9 7 7 7 7 6 5 6 6 7 6 7 8 8 7 8 6 7 9 8 6 5 5 5 5
9 9 8 7 9 9 9 9 9 10 10 10 10 10 10 10 10 9 10 11 10 8 9 6 7 9 10 6 7 8 8 8 7 7 6 6 7 6 5 7 8 6 6
Wind_Direction
343 334 331 331 324 311 314 306 325 316 302 301 298 302 282 274 289 292 281 279 277 259 268 279 252 255 265 287 222 204 205 227 178 238 89 357 321 169 121 177 168 175 187
341 341 313 290 292 302 315 326 307 312 316 310 316 320 309 292 265 253 251 262 270 271 273 276 271 257 247 291 249 200 184 217 149 202 199 351 288 168 159 170 196 217 182
334 319 294 278 300 335 345 318 323 328 326 330 323 321 310 307 299 285 261 243 259 263 249 258 274 267 246 265 298 210 199 173 163 155 224 133 304 236 168 179 221 256 239
319 292 289 279 333 359 342 322 338 328 336 311 304 294 291 293 301 297 292 282 254 247 256 248 256 261 249 240 251 298 184 167 154 159 199 175 254 231 161 158 228 252 311
313 317 316 307 319 340 312 313 318 314 305 296 291 289 286 282 302 308 288 277 274 267 244 242 246 258 255 257 237 299 237 164 147 158 182 195 250 208 176 179 212 215 213
311 310 335 342 339 341 316 311 305 299 298 300 301 303 310 321 322 312 293 272 250 247 243 225 258 234 251 199 243 335 359 330 166 171 191 220 251 191 201 176 203 192 228
325 325 348 343 345 334 334 316 318 308 299 303 302 313 308 357 328 314 316 289 246 215 221 222 240 206 223 209 230 189 292 309 271 278 183 240 282 191 183 168 201 211 207
336 334 338 337 347 333 338 331 320 299 301 302 308 327 292 321 320 329 341 308 217 199 214 231 246 211 193 188 226 217 218 279 234 217 106 320 288 308 177 168 205 191 236
354 339 331 335 349 337 339 323 318 314 299 313 316 320 339 317 341 342 355 322 253 217 228 219 219 229 189 201 222 236 192 217 255 104 51 282 103 341 123 90 223 159 232
358 342 334 337 341 338 337 324 336 333 326 301 329 1 341 5 347 355 355 297 225 204 200 222 218 188 190 192 210 246 197 204 213 148 195 276 239 187 94 95 308 218 198
4 351 348 343 337 325 343 338 348 347 340 329 355 17 47 14 355 360 5 1 355 278 178 186 187 168 184 186 206 235 188 200 167 163 218 241 234 175 169 138 327 310 20
18 359 348 342 348 360 354 340 357 350 345 338 359 350 321 12 2 358 10 12 352 231 312 88 135 185 200 202 219 224 317 248 164 190 256 212 200 189 53 73 345 356 42
30 9 352 345 347 3 335 343 358 354 351 347 1 354 357 10 24 326 13 354 349 330 227 219 232 204 189 186 201 189 251 233 164 211 165 88 196 72 50 37 31 20 27
44 19 354 349 341 357 5 353 1 351 346 345 353 353 352 8 8 358 349 353 7 12 58 95 99 125 118 122 149 263 247 186 174 167 116 121 72 60 45 34 40 354 347
54 34 3 348 345 351 353 9 355 347 350 336 338 335 348 351 351 352 355 359 354 4 58 58 71 89 119 128 199 188 180 171 136 102 108 128 198 132 125 20 65 340 210
29 44 13 360 352 354 346 344 47 2 348 10 1 2 348 12 20 1 357 358 2 6 21 32 125 165 85 96 96 115 112 122 153 124 157 193 191 185 170 174 191 183 199
12 23 18 15 360 354 352 350 351 358 357 350 353 357 5 2 359 353 343 345 3 10 36 35 33 34 41 52 80 95 134 200 192 194 194 211 217 133 138 153 171 174 237
3 4 16 36 29 10 356 351 355 354 353 353 356 355 356 346 331 333 334 325 17 23 29 20 14 6 19 42 36 47 191 272 288 211 80 120 130 135 186 184 197 200 218
19 4 357 19 11 11 10 9 5 0 1 359 357 8 359 348 6 351 326 294 307 144 103 360 312 312 316 295 286 357 25 71 72 107 84 61 66 60 311 259 247 215 218
10 26 15 7 4 4 4 3 358 8 6 7 11 7 356 4 14 4 6 4 0 1 360 336 218 235 262 284 269 236 265 220 173 174 202 205 194 190 236 246 242 213 230
15 11 6 15 15 10 9 10 8 8 6 3 2 351 358 6 6 6 2 2 358 348 342 340 338 339 2 1 325 259 174 345 326 273 248 197 148 197 235 238 241 226 218
15 16 17 15 7 8 5 6 9 10 10 7 2 1 0 4 9 4 5 1 353 343 335 327 323 321 325 346 348 344 341 277 248 282 323 317 263 242 241 236 225 225 204
20 20 16 17 14 10 9 8 8 9 7 7 2 2 5 8 6 3 358 356 353 351 346 344 340 334 331 324 325 331 320 298 284 297 235 227 240 238 221 237 220 210 206
21 21 17 21 13 11 10 6 6 6 4 4 3 2 0 359 1 1 1 355 345 348 346 344 341 339 332 329 318 309 297 289 287 270 270 264 265 249 233 232 216 210 209
22 22 17 14 13 13 8 3 4 4 4 3 2 0 359 359 359 357 354 348 350 351 341 340 333 333 336 332 329 324 308 293 276 262 254 249 253 249 234 228 230 218 204
26 24 18 10 12 9 6 2 3 1 2 3 2 359 357 356 356 354 356 355 353 350 348 345 333 332 329 322 316 320 322 317 303 270 248 243 248 250 231 232 224 218 207